Saint George, UT

9:29 AM MST on February 07, 2016 (GMT -0700)
Saint George Municipal

Weather History for KSGU - February, 2013

Change the Weather History Date:

Monday, February 18, 2013

  Actual Average (KCDC) Record (KCDC)
Temperature  
Mean Temperature 46 °F 34 °F  
Max Temperature 60 °F 47 °F 67 °F (1981)
Min Temperature 32 °F 21 °F 5 °F (1975)
Degree Days  
Heating Degree Days 19 31  
Month to date heating degree days 590  
Since 1 July heating degree days 4265  
Cooling Degree Days 0 0  
Month to date cooling degree days 0  
Year to date cooling degree days 0  
Moisture  
Dew Point 15 °F    
Average Humidity 31    
Maximum Humidity 55    
Minimum Humidity 14    
Precipitation  
Precipitation 0.00 in 0.03 in 0.47 in (1990)
Month to date precipitation 0.60  
Year to date precipitation 1.46  
Sea Level Pressure  
Sea Level Pressure 30.06 in    
Wind  
Wind Speed 6 mph (NE)    
Max Wind Speed 17 mph    
Max Gust Speed 22 mph    
Visibility 10 miles    
Events      
T = Trace of Precipitation, MM = Missing Value Source: NWS Daily Summary

Daily Weather History Graph

Daily Weather History Graph

Search for Another Location

Airport or City:

Trip Planner

Search our weather history database for the weather conditions in past years. The results will help you decide how hot, cold, wet, or windy it might be!

Date:

Astronomy

Feb. 18, 2013 Rise Set
Actual Time 7:18 AM MST 6:17 PM MST
Civil Twilight 6:52 AM MST 6:44 PM MST
Nautical Twilight 6:22 AM MST 7:14 PM MST
Astronomical Twilight 5:51 AM MST 7:44 PM MST
Moon 12:10 PM MST (2/18) 1:58 AM MST (2/18)
Length of Visible Light 11h 51m
Length of Day
10h 58m
First Quarter, 59% of the Moon is Illuminated
Feb 18
First Quarter
Feb 25
Full
Mar 4
Last Quarter
Mar 11
New
Mar 19
First Quarter

Hourly Weather History & Observations

Time (MST) Temp. Windchill Dew Point Humidity Pressure Visibility Wind Dir Wind Speed Gust Speed Precip Events Conditions
12:15 AM 42.8 °F 37.5 °F 21.2 °F 42% 30.03 in 10.0 mi SSE 9.2 mph - N/A   Clear
12:35 AM 41.0 °F 34.7 °F 21.2 °F 45% 30.04 in 10.0 mi SSE 10.4 mph - N/A   Clear
12:55 AM 41.0 °F 35.8 °F 21.2 °F 45% 30.05 in 10.0 mi South 8.1 mph - N/A   Clear
1:15 AM 42.8 °F 36.6 °F 21.2 °F 42% 30.06 in 10.0 mi South 11.5 mph - N/A   Clear
1:35 AM 41.0 °F 35.2 °F 21.2 °F 45% 30.06 in 10.0 mi SSE 9.2 mph - N/A   Clear
2:15 AM 41.0 °F 38.0 °F 19.4 °F 42% 30.07 in 10.0 mi East 4.6 mph - N/A   Clear
2:35 AM 42.8 °F 38.6 °F 17.6 °F 36% 30.08 in 10.0 mi NE 6.9 mph - N/A   Clear
2:55 AM 42.8 °F 36.6 °F 15.8 °F 34% 30.08 in 10.0 mi NNE 11.5 mph 18.4 mph N/A   Clear
3:15 AM 42.8 °F 35.4 °F 15.8 °F 34% 30.08 in 10.0 mi NNE 15.0 mph 18.4 mph N/A   Clear
3:35 AM 42.8 °F 34.8 °F 15.8 °F 34% 30.08 in 10.0 mi NE 17.3 mph 21.9 mph N/A   Clear
3:55 AM 39.2 °F 33.0 °F 15.8 °F 39% 30.08 in 10.0 mi North 9.2 mph - N/A   Clear
4:15 AM 39.2 °F 33.6 °F 15.8 °F 39% 30.09 in 10.0 mi NNE 8.1 mph - N/A   Clear
4:35 AM 37.4 °F 33.8 °F 15.8 °F 41% 30.10 in 10.0 mi North 4.6 mph - N/A   Clear
4:55 AM 39.2 °F 35.0 °F 15.8 °F 39% 30.10 in 10.0 mi NNE 5.8 mph - N/A   Clear
5:15 AM 37.4 °F 32.1 °F 15.8 °F 41% 30.11 in 10.0 mi North 6.9 mph - N/A   Clear
5:35 AM 35.6 °F - 17.6 °F 48% 30.12 in 10.0 mi Calm Calm - N/A   Clear
5:55 AM 35.6 °F - 15.8 °F 44% 30.13 in 10.0 mi Calm Calm - N/A   Clear
6:15 AM 33.8 °F 28.6 °F 17.6 °F 52% 30.13 in 10.0 mi NW 5.8 mph - N/A   Clear
6:35 AM 35.6 °F 32.8 °F 17.6 °F 48% 30.13 in 10.0 mi North 3.5 mph - N/A   Clear
6:55 AM 33.8 °F - 17.6 °F 52% 30.14 in 10.0 mi Calm Calm - N/A   Clear
7:15 AM 33.8 °F - 17.6 °F 52% 30.14 in 10.0 mi Calm Calm - N/A   Clear
7:35 AM 33.8 °F - 15.8 °F 48% 30.15 in 10.0 mi Calm Calm - N/A   Clear
7:55 AM 32.0 °F 27.5 °F 17.6 °F 55% 30.15 in 10.0 mi SSE 4.6 mph - N/A   Clear
8:15 AM 35.6 °F - 17.6 °F 48% 30.16 in 10.0 mi Calm Calm - N/A   Clear
8:35 AM 37.4 °F 33.8 °F 19.4 °F 48% 30.16 in 10.0 mi ESE 4.6 mph - N/A   Clear
8:55 AM 39.2 °F 33.6 °F 17.6 °F 42% 30.17 in 10.0 mi East 8.1 mph - N/A   Clear
9:15 AM 41.0 °F 38.0 °F 17.6 °F 39% 30.17 in 10.0 mi ESE 4.6 mph - N/A   Clear
9:35 AM 42.8 °F 39.3 °F 17.6 °F 36% 30.18 in 10.0 mi SE 5.8 mph - N/A   Clear
9:55 AM 42.8 °F 40.1 °F 17.6 °F 36% 30.17 in 10.0 mi SSE 4.6 mph - N/A   Clear
10:15 AM 42.8 °F 41.1 °F 17.6 °F 36% 30.18 in 10.0 mi SW 3.5 mph - N/A   Clear
10:35 AM 44.6 °F 43.1 °F 15.8 °F 31% 30.17 in 10.0 mi SW 3.5 mph - N/A   Clear
10:55 AM 44.6 °F 43.1 °F 15.8 °F 31% 30.17 in 10.0 mi SW 3.5 mph - N/A   Clear
11:15 AM 44.6 °F 43.1 °F 15.8 °F 31% 30.17 in 10.0 mi WNW 3.5 mph - N/A   Clear
11:35 AM 48.2 °F - 17.6 °F 30% 30.17 in 10.0 mi Calm Calm - N/A   Clear
11:55 AM 48.2 °F - 15.8 °F 27% 30.16 in 10.0 mi NW 4.6 mph - N/A   Clear
12:15 PM 48.2 °F - 15.8 °F 27% 30.15 in 10.0 mi Calm Calm - N/A   Clear
12:35 PM 51.8 °F - 15.8 °F 24% 30.13 in 10.0 mi Calm Calm - N/A   Clear
1:15 PM 53.6 °F - 15.8 °F 22% 30.10 in 10.0 mi North 5.8 mph - N/A   Clear
1:35 PM 53.6 °F - 15.8 °F 22% 30.09 in 10.0 mi NNW 6.9 mph - N/A   Clear
1:55 PM 55.4 °F - 15.8 °F 21% 30.07 in 10.0 mi NNE 6.9 mph - N/A   Clear
2:15 PM 55.4 °F - 14.0 °F 20% 30.06 in 10.0 mi NNW 4.6 mph - N/A   Clear
2:35 PM 57.2 °F - 12.2 °F 17% 30.04 in 10.0 mi East 4.6 mph - N/A   Clear
2:55 PM 57.2 °F - 12.2 °F 17% 30.03 in 10.0 mi North 5.8 mph - N/A   Clear
3:15 PM 59.0 °F - 12.2 °F 16% 30.02 in 10.0 mi North 8.1 mph - N/A   Clear
3:35 PM 59.0 °F - 12.2 °F 16% 30.01 in 10.0 mi North 4.6 mph - N/A   Clear
3:55 PM 59.0 °F - 12.2 °F 16% 30.00 in 10.0 mi NNW 5.8 mph - N/A   Clear
4:15 PM 59.0 °F - 12.2 °F 16% 29.99 in 10.0 mi North 5.8 mph - N/A   Clear
4:35 PM 59.0 °F - 10.4 °F 15% 29.98 in 10.0 mi North 4.6 mph - N/A   Clear
4:55 PM 59.0 °F - 10.4 °F 15% 29.98 in 10.0 mi North 3.5 mph - N/A   Clear
5:15 PM 60.8 °F - 10.4 °F 14% 29.97 in 10.0 mi North 4.6 mph - N/A   Clear
5:35 PM 59.0 °F - 10.4 °F 15% 29.96 in 10.0 mi WNW 5.8 mph - N/A   Clear
5:55 PM 57.2 °F - 8.6 °F 14% 29.96 in 10.0 mi WNW 4.6 mph - N/A   Clear
6:15 PM 55.4 °F - 8.6 °F 15% 29.96 in 10.0 mi West 5.8 mph - N/A   Clear
6:55 PM 51.8 °F - 10.4 °F 19% 29.96 in 10.0 mi WSW 5.8 mph - N/A   Clear
7:15 PM 48.2 °F - 10.4 °F 22% 29.96 in 10.0 mi SE 3.5 mph - N/A   Clear
7:55 PM 48.2 °F - 10.4 °F 22% 29.96 in 10.0 mi South 3.5 mph - N/A   Clear
8:15 PM 44.6 °F 41.4 °F 8.6 °F 23% 29.96 in 10.0 mi SE 5.8 mph - N/A   Clear
8:35 PM 44.6 °F 40.2 °F 10.4 °F 25% 29.96 in 10.0 mi SE 8.1 mph - N/A   Clear
8:55 PM 44.6 °F 42.2 °F 10.4 °F 25% 29.95 in 10.0 mi South 4.6 mph - N/A   Clear
9:15 PM 44.6 °F - 10.4 °F 25% 29.96 in 10.0 mi Calm Calm - N/A   Clear
9:35 PM 44.6 °F - 12.2 °F 27% 29.96 in 10.0 mi Calm Calm - N/A   Clear
9:55 PM 42.8 °F 40.1 °F 10.4 °F 27% 29.96 in 10.0 mi NE 4.6 mph - N/A   Clear
10:15 PM 41.0 °F 39.0 °F 10.4 °F 29% 29.96 in 10.0 mi ESE 3.5 mph - N/A   Clear
10:35 PM 44.6 °F 40.2 °F 10.4 °F 25% 29.96 in 10.0 mi SSE 8.1 mph - N/A   Clear
10:55 PM 41.0 °F - 10.4 °F 29% 29.96 in 10.0 mi Calm Calm - N/A   Clear
11:15 PM 41.0 °F - 10.4 °F 29% 29.96 in 10.0 mi Calm Calm - N/A   Clear
11:35 PM 44.6 °F 43.1 °F 12.2 °F 27% 29.97 in 10.0 mi NNE 3.5 mph - N/A   Clear
11:55 PM 42.8 °F 40.1 °F 10.4 °F 27% 29.96 in 10.0 mi ENE 4.6 mph - N/A   Clear